Weather Roundup
Issued by NWS Corpus Christi, TX

Home | Current Version | Previous Version | Text Only | Print | Product List | Glossary On
Versions: 1 2 3 4 5 6 7 8 9 10 11 12 13 14 15 16 17 18 19 20 21 22 23 24 25 26 27 28 29 30 31 32 33 34 35 36 37 38 39 40 41 42 43 44 45 46 47 48 49 50
000
ASUS44 KCRP 280210
HRRCRP

SOUTH TEXAS REGIONAL WEATHER ROUNDUP
NATIONAL WEATHER SERVICE CORPUS CHRISTI TX
900 PM CDT MON MAR 27 2017


TXZ229>244-280300-
...CORPUS CHRISTI AREA OBSERVATIONS...

CITY           SKY/WX    TMP DP  RH WIND       PRES   REMARKS
CORPUS CHRISTI PTCLDY    74  71  91 SE14      29.81R
NAS CORPUS CHR PTCLDY    76  70  82 SE14      29.80R
ROCKPORT       PTCLDY    74  70  87 SE10      29.82R
KINGSVILLE NAS PTCLDY    74  72  93 SE9       29.80R
ALICE          CLOUDY    74  69  85 SE10      29.79R
ORANGE GROVE   CLEAR     74  71  91 SE13      29.81R
FALFURRIAS     CLEAR     76  71  84 E8        29.79R
$$

...VICTORIA AREA OBSERVATIONS...

CITY           SKY/WX    TMP DP  RH WIND       PRES   REMARKS
VICTORIA       PTCLDY    73  68  84 SE12      29.83R
BEEVILLE       MOCLDY    73  73 100 SE7       29.81R
PLEASANTON     CLEAR     76  67  71 E5        29.80R
SAN ANTONIO    PTCLDY    74  66  76 SE6       29.81R
$$

...LAREDO AREA OBSERVATIONS...

CITY           SKY/WX    TMP DP  RH WIND       PRES   REMARKS
LAREDO         PTCLDY    81  68  64 E13       29.76R
COTULLA        CLEAR     78  65  63 E7        29.77R
DEL RIO        CLEAR     79  58  48 SE10      29.75R
MCALLEN        CLEAR     81  68  64 SE14      29.78R
HEBBRONVILLE   PTCLDY    77  69  76 SE13G18   29.80R
$$

...OTHER TEXAS OBSERVATIONS...

CITY           SKY/WX    TMP DP  RH WIND       PRES   REMARKS
BROWNSVILLE    CLOUDY    76  72  87 E6        29.81R
HOUSTON        PTCLDY    76  66  71 S10       29.85R
COL. STATION   MOCLDY    77  68  73 SE7       29.83R
AUSTIN         PTCLDY    75  67  76 CALM      29.80S
WACO           PTCLDY    67  61  81 NE5       29.83R
FORT WORTH     CLEAR     65  55  70 E8        29.86R
WICHITA FALLS  CLEAR     60  48  64 NE8       29.87R
LUBBOCK        PTCLDY    65  39  38 SE12      29.84R
EL PASO        MOCLDY    76  19  11 S6        29.76F
$$

...MARINE OBSERVATIONS...

STATION/POSITION TIME  SKY/WX   TEMP    WIND        PRES    VSBY  WAVE   SWELL
                                AIR SEA DIR/SP/G                  HT/PER HT/PER
                 (UTC)          (F)     (DEG/KT/KT) (MB)    (MI)  (FT/S) (FT/S)
PORT ARANSAS     0200            72 75  110/ 10/ 11 1009.6R
BUOY 90 E PORT A 0150            74 73  130/ 10/ 12 1010.6R         5/ 7   3/ 7
BUOY 45 SE BAFFI 0150            74     130/ 10/ 12 1008.8R         5/ 8   5/ 8
BUOY 200 E PT IS 0150            76 77  140/ 17/ 21 1011.5R         6/ 7
BUOY 15 E GALVES 0150            73 74  140/ 10/ 10 1011.6R         3/ 7   3/ 7
$$




USA.gov is the U.S. government's official web portal to all federal, state and local government web resources and services.